Погода в Турбове

Украина / Винницкая область     49°20′46″N   28°43′12″E
темп.,
°C
ветер,
м/с
пор.,
м/с
влажн.,
%
обл.,
%
осадки,
мм/ч
давл.,
гПа
погр.,
м
23 апреля, пт
пт2300:00+8зюз238779 0.6 101540
03:00+6ссз589344 0.8 1016401
06:00+6ссз4790100 0.4 1017498
09:00+6сз5777100 1.3 1018893
12:00+7ссз4560100 0.0 10191205
15:00+8сз5551100 0.0 10191566
18:00+10зсз464545 0.0 10171788
21:00+5сз497197 0.2 1019271
24 апреля, сб
сб2400:00+4з410791 0.1 1020290
03:00+3з410805 0.1 1020257
06:00+2зсз511835 0.0 1020374
09:00+4зсз51057100 0.0 10221197
12:00+7сз71039100 0.0 10222812
15:00+8зсз7948100 0.1 10221950
18:00+8зсз694970 0.2 10211881
21:00+4зсз226339 0.2 102210
25 апреля, вс
вс2500:00+3ююз226430 0.0 102225
03:00+2ююз377426 0.0 1021117
06:00+3юз41183100 0.0 1020292
09:00+5з4693100 0.4 1020688
12:00+4зюз4689100 2.4 1020428
15:00+6зсз477282 2.7 10191018
18:00+8зсз584630 0.0 10181860
21:00+3сз35635 0.0 102094
26 апреля, пн
пн2600:00+1сз33736 0.0 102053
03:000зсз2376100 0.0 102035
06:000зсз34765 0.0 101962
09:00+5з47575 0.0 1019833
12:00+7з6845100 0.2 10182111
15:00+8зсз7942100 0.4 10172383
18:00+7сз785044 0.1 10161885
21:00+3зсз226445 0.1 101727
27 апреля, вт
вт2700:00+2з1162100 0.0 101710
03:00+2ююз2261100 0.0 101632
06:00+2з3666100 0.0 1016174
09:00+5зсз45607 0.0 1017888
12:00+8зсз574499 0.1 10162189
15:00+10зсз5641100 0.1 10152123
18:00+10сз344363 0.0 10151763
21:00+6в11594 0.0 101610